Flagstaff, AZ

5:41 AM MST on September 25, 2016 (GMT -0700)
Flagstaff Pulliam

Weather History for KFLG - September, 2015

Change the Weather History Date:

Saturday, September 5, 2015

  Actual Average Record
Temperature  
Mean Temperature 61 °F 61 °F  
Max Temperature 69 °F 76 °F 89 °F (1945)
Min Temperature 52 °F 46 °F 31 °F (1961)
Degree Days  
Heating Degree Days 4 4  
Month to date heating degree days 18 19  
Since 1 July heating degree days 91 107  
Cooling Degree Days 0 0  
Month to date cooling degree days 0 0  
Year to date cooling degree days 115 114  
Growing Degree Days 10 (Base 50)    
Moisture  
Dew Point 54 °F    
Average Humidity 78    
Maximum Humidity 100    
Minimum Humidity 56    
Precipitation  
Precipitation 0.20 in 0.10 in 2.84 in (1970)
Month to date precipitation 0.53 0.46  
Year to date precipitation 18.95 14.65  
Snow  
Snow 0.00 in 0.00 in 0.00 in (2002)
Month to date snowfall 0.0 0.0  
Since 1 July snowfall 0.0 0.0  
Snow Depth 0.00 in    
Sea Level Pressure  
Sea Level Pressure 30.09 in    
Wind  
Wind Speed 7 mph (SW)    
Max Wind Speed 17 mph    
Max Gust Speed 22 mph    
Visibility 10 miles    
Events Rain , Thunderstorm    
T = Trace of Precipitation, MM = Missing Value Source: NWS Daily Summary

Daily Weather History Graph

Daily Weather History Graph

Search for Another Location

Airport or City:

Trip Planner

Search our weather history database for the weather conditions in past years. The results will help you decide how hot, cold, wet, or windy it might be!

Date:

Astronomy

Sep. 05, 2015 Rise Set
Actual Time 6:02 AM MST 6:48 PM MST
Civil Twilight 5:36 AM MST 7:13 PM MST
Nautical Twilight 5:05 AM MST 7:44 PM MST
Astronomical Twilight 4:34 AM MST 8:15 PM MST
Moon No Moon Rise 1:31 PM MST (9/5)
Length of Visible Light 13h 37m
Length of Day
12h 46m
Last Quarter, 46% of the Moon is Illuminated
Sep 5
Last Quarter
Sep 12
New
Sep 21
First Quarter
Sep 27
Full
Oct 4
Last Quarter

Hourly Weather History & Observations

Time (MST) Temp. Dew Point Humidity Pressure Visibility Wind Dir Wind Speed Gust Speed Precip Events Conditions
12:57 AM 54.0 °F 54.0 °F 100% 29.92 in 10.0 mi SW 8.1 mph - N/A   Scattered Clouds
1:57 AM 55.0 °F 54.0 °F 96% 29.91 in 10.0 mi SW 6.9 mph - 0.08 in Rain Light Rain
2:57 AM 54.0 °F 54.0 °F 100% 29.93 in 10.0 mi WSW 6.9 mph - 0.01 in   Scattered Clouds
3:57 AM 54.0 °F 54.0 °F 100% 29.94 in 10.0 mi SW 10.4 mph - N/A   Clear
4:57 AM 54.0 °F 53.1 °F 97% 29.96 in 10.0 mi WSW 3.5 mph - N/A   Clear
5:07 AM 54.0 °F 53.1 °F 97% 30.20 in 10.0 mi Calm Calm - N/A   Scattered Clouds
5:33 AM 53.1 °F 53.1 °F 100% 30.20 in 10.0 mi Calm Calm - N/A   Mostly Cloudy
5:57 AM 54.0 °F 54.0 °F 100% 29.99 in 9.0 mi WSW 3.5 mph - N/A   Overcast
6:57 AM 55.0 °F 55.0 °F 100% 29.99 in 9.0 mi WSW 4.6 mph - N/A   Mostly Cloudy
7:04 AM 55.9 °F 55.0 °F 97% 30.22 in 10.0 mi Variable 3.5 mph - N/A   Mostly Cloudy
7:29 AM 55.9 °F 55.0 °F 97% 30.23 in 10.0 mi Calm Calm - N/A   Overcast
7:57 AM 57.0 °F 55.9 °F 96% 30.02 in 10.0 mi SSW 6.9 mph - N/A   Overcast
8:04 AM 57.0 °F 55.9 °F 96% 30.24 in 10.0 mi SW 8.1 mph - N/A   Overcast
8:14 AM 57.0 °F 55.9 °F 96% 30.25 in 10.0 mi SSW 8.1 mph - N/A   Overcast
8:20 AM 57.9 °F 55.9 °F 93% 30.24 in 10.0 mi SW 9.2 mph - N/A   Overcast
8:57 AM 59.0 °F 55.0 °F 87% 30.02 in 10.0 mi WSW 6.9 mph - N/A   Overcast
8:59 AM 59.0 °F 55.0 °F 87% 30.25 in 10.0 mi WSW 6.9 mph - N/A   Overcast
9:31 AM 60.1 °F 55.0 °F 83% 30.26 in 10.0 mi SW 6.9 mph - N/A   Overcast
9:39 AM 60.1 °F 55.0 °F 83% 30.26 in 10.0 mi SSW 8.1 mph - N/A   Overcast
9:57 AM 61.0 °F 55.0 °F 81% 30.02 in 10.0 mi SW 8.1 mph - N/A   Overcast
10:57 AM 66.0 °F 54.0 °F 65% 30.00 in 10.0 mi South 15.0 mph - N/A   Mostly Cloudy
11:57 AM 66.9 °F 53.1 °F 61% 29.98 in 10.0 mi SSW 12.7 mph 20.7 mph N/A   Partly Cloudy
12:57 PM 66.9 °F 50.0 °F 54% 29.96 in 10.0 mi SSW 12.7 mph 21.9 mph N/A   Partly Cloudy
1:06 PM 66.9 °F 51.1 °F 57% 30.24 in 10.0 mi SW 12.7 mph - N/A Thunderstorm Mostly Cloudy
1:28 PM 64.0 °F 53.1 °F 67% 30.24 in 10.0 mi WSW 11.5 mph 17.3 mph N/A Thunderstorm Thunderstorm
1:57 PM 55.9 °F 48.9 °F 77% 30.04 in 3.0 mi West 8.1 mph 18.4 mph 0.04 in Rain , Thunderstorm Thunderstorms and Rain
2:50 PM 54.0 °F 52.0 °F 93% 30.25 in 10.0 mi Variable 3.5 mph - 0.05 in Rain Rain
2:57 PM 55.0 °F 53.1 °F 93% 30.02 in 10.0 mi East 4.6 mph - 0.06 in   Overcast
3:28 PM 55.0 °F 53.1 °F 93% 30.26 in 10.0 mi WSW 4.6 mph - N/A Thunderstorm Thunderstorm
3:57 PM 54.0 °F 52.0 °F 93% 30.05 in 10.0 mi SSW 5.8 mph - 0.01 in Rain , Thunderstorm Light Thunderstorms and Rain
4:20 PM 54.0 °F 53.1 °F 97% 30.26 in 10.0 mi Calm Calm - 0.00 in   Overcast
4:57 PM 57.9 °F 55.0 °F 90% 30.01 in 10.0 mi Calm Calm - 0.00 in   Scattered Clouds
5:57 PM 60.1 °F 55.0 °F 83% 30.01 in 10.0 mi SW 8.1 mph - N/A   Scattered Clouds
6:57 PM 57.9 °F 53.1 °F 84% 30.01 in 10.0 mi SSW 4.6 mph - N/A   Scattered Clouds
7:57 PM 55.9 °F 54.0 °F 93% 30.04 in 10.0 mi SSW 5.8 mph - N/A   Overcast
8:57 PM 55.0 °F 53.1 °F 93% 30.05 in 10.0 mi SW 6.9 mph - N/A   Overcast
9:57 PM 55.9 °F 52.0 °F 87% 30.05 in 10.0 mi NW 5.8 mph - N/A   Clear
10:57 PM 55.9 °F 54.0 °F 93% 30.04 in 10.0 mi WSW 5.8 mph - N/A   Overcast
11:57 PM 55.9 °F 54.0 °F 93% 30.03 in 10.0 mi NW 3.5 mph - N/A   Overcast